When you browse on this site, cookies collect data to enhance your experience and personalize the content and advertising you see.
Visit our Privacy Policy to learn more. By continuing to use the site, you agree to this use of cookies and data.
  • In Lithuania
  • List of Countries
  • For 7 days
  • Water Temperature
  • Satellite Maps
  • Weather Map
  • Weather Widgets
  • user-avatar
    Login

    Hourly Weather Strachocice

    Today, 25 April, Thursday

    Time Temperature Precipitation Wind Pressure Humidity
    00:00 +14°C° 0 mm 5 mps 747 mmHg 73%
    01:00 +14°C° 0 mm 5 mps 747 mmHg 75%
    02:00 +13°C° 0 mm 5 mps 747 mmHg 76%
    03:00 +13°C° 0 mm 5 mps 747 mmHg 77%
    04:00 +13°C° 0 mm 5 mps 747 mmHg 79%
    05:00 +14°C° 0 mm 6 mps 747 mmHg 76%
    06:00 +15°C° 0 mm 6 mps 747 mmHg 74%
    07:00 +16°C° 0 mm 6 mps 747 mmHg 71%
    08:00 +17°C° 0 mm 6 mps 747 mmHg 68%
    09:00 +19°C° 0 mm 5 mps 747 mmHg 65%
    10:00 +21°C° 0 mm 5 mps 748 mmHg 62%
    11:00 +22°C° 0 mm 4 mps 747 mmHg 58%
    12:00 +23°C° 0 mm 4 mps 747 mmHg 55%
    13:00 +25°C° 0 mm 4 mps 747 mmHg 52%
    14:00 +25°C° 0 mm 3 mps 747 mmHg 51%
    15:00 +25°C° 0 mm 3 mps 747 mmHg 51%
    16:00 +25°C° 0 mm 3 mps 747 mmHg 50%
    17:00 +24°C° 0 mm 2 mps 747 mmHg 56%
    18:00 +21°C° 0 mm 2 mps 747 mmHg 63%
    19:00 +19°C° 0 mm 2 mps 747 mmHg 69%
    20:00 +18°C° 0 mm 2 mps 747 mmHg 71%
    21:00 +18°C° 0 mm 2 mps 747 mmHg 74%
    22:00 +17°C° 0 mm 2 mps 747 mmHg 76%
    23:00 +16°C° 0 mm 3 mps 747 mmHg 76%

    Tomorrow, 26 April, Friday

    Time Temperature Precipitation Wind Pressure Humidity
    00:00 +16°C° 0 mm 3 mps 747 mmHg 76%
    01:00 +14°C° 0 mm 3 mps 747 mmHg 76%
    02:00 +14°C° 0 mm 3 mps 746 mmHg 77%
    03:00 +14°C° 0 mm 3 mps 746 mmHg 77%
    04:00 +14°C° 0 mm 3 mps 746 mmHg 77%
    05:00 +15°C° 0 mm 4 mps 745 mmHg 73%
    06:00 +17°C° 0 mm 4 mps 745 mmHg 70%
    07:00 +19°C° 0 mm 5 mps 745 mmHg 66%
    08:00 +20°C° 0 mm 5 mps 744 mmHg 61%
    09:00 +21°C° 0 mm 4 mps 744 mmHg 56%
    10:00 +23°C° 0 mm 4 mps 744 mmHg 51%
    11:00 +23°C° 0 mm 4 mps 744 mmHg 48%
    12:00 +25°C° 0 mm 5 mps 743 mmHg 46%
    13:00 +26°C° 0 mm 5 mps 743 mmHg 44%
    14:00 +26°C° 0 mm 5 mps 743 mmHg 45%
    15:00 +26°C° 0 mm 4 mps 742 mmHg 45%
    16:00 +26°C° 0 mm 4 mps 742 mmHg 46%
    17:00 +25°C° 0 mm 3 mps 742 mmHg 52%
    18:00 +22°C° 0 mm 3 mps 741 mmHg 58%
    19:00 +20°C° 0 mm 2 mps 741 mmHg 64%
    20:00 +20°C° 0 mm 2 mps 741 mmHg 65%
    21:00 +19°C° 0 mm 3 mps 741 mmHg 66%
    22:00 +18°C° 0 mm 3 mps 741 mmHg 67%
    23:00 +18°C° 0 mm 3 mps 741 mmHg 69%

    Day after tomorrow, 27 April, Saturday

    Time Temperature Precipitation Wind Pressure Humidity
    00:00 +17°C° 0 mm 4 mps 742 mmHg 71%
    01:00 +17°C° 0 mm 4 mps 742 mmHg 73%
    02:00 +15°C° 0.1 mm 5 mps 742 mmHg 78%
    03:00 +15°C° 0.1 mm 6 mps 743 mmHg 83%
    04:00 +14°C° 0.1 mm 7 mps 743 mmHg 88%
    05:00 +12°C° 0.1 mm 7 mps 743 mmHg 86%
    06:00 +12°C° 0.1 mm 7 mps 744 mmHg 84%
    07:00 +11°C° 0.1 mm 7 mps 744 mmHg 82%
    08:00 +11°C° 0 mm 7 mps 745 mmHg 80%
    09:00 +11°C° 0 mm 7 mps 745 mmHg 79%
    10:00 +11°C° 0 mm 7 mps 746 mmHg 77%
    11:00 +12°C° 0 mm 7 mps 746 mmHg 75%
    12:00 +12°C° 0 mm 7 mps 746 mmHg 72%
    13:00 +14°C° 0 mm 6 mps 746 mmHg 69%
    14:00 +14°C° 0 mm 6 mps 746 mmHg 67%
    15:00 +15°C° 0 mm 5 mps 746 mmHg 65%
    16:00 +15°C° 0 mm 5 mps 746 mmHg 63%
    17:00 +14°C° 0 mm 4 mps 746 mmHg 66%
    18:00 +13°C° 0 mm 3 mps 746 mmHg 70%
    19:00 +13°C° 0 mm 2 mps 746 mmHg 73%
    20:00 +13°C° 0 mm 2 mps 746 mmHg 74%
    21:00 +13°C° 0 mm 2 mps 747 mmHg 74%
    22:00 +12°C° 0 mm 2 mps 747 mmHg 74%
    23:00 +12°C° 0 mm 2 mps 747 mmHg 77%

    28 April, Sunday

    Time Temperature Precipitation Wind Pressure Humidity
    00:00 +10°C° 0 mm 2 mps 747 mmHg 80%
    01:00 +9°C° 0 mm 2 mps 747 mmHg 83%
    02:00 +9°C° 0 mm 2 mps 748 mmHg 81%
    03:00 +9°C° 0 mm 2 mps 748 mmHg 80%
    04:00 +9°C° 0 mm 2 mps 748 mmHg 79%
    05:00 +10°C° 0 mm 2 mps 748 mmHg 77%
    06:00 +10°C° 0 mm 2 mps 748 mmHg 75%
    07:00 +10°C° 0 mm 2 mps 748 mmHg 73%
    08:00 +11°C° 0.1 mm 3 mps 749 mmHg 71%
    09:00 +12°C° 0.1 mm 4 mps 749 mmHg 70%
    10:00 +12°C° 0.1 mm 5 mps 749 mmHg 68%
    11:00 +12°C° 0.5 mm 5 mps 749 mmHg 71%
    12:00 +12°C° 0.5 mm 4 mps 749 mmHg 75%
    13:00 +12°C° 0.5 mm 4 mps 749 mmHg 78%
    14:00 +11°C° 1.6 mm 4 mps 749 mmHg 80%
    15:00 +10°C° 1.6 mm 5 mps 749 mmHg 83%
    16:00 +9°C° 1.6 mm 5 mps 749 mmHg 85%
    17:00 +9°C° 1.5 mm 5 mps 749 mmHg 87%
    18:00 +9°C° 1.5 mm 5 mps 749 mmHg 89%
    19:00 +9°C° 1.5 mm 5 mps 749 mmHg 91%
    20:00 +9°C° 0.1 mm 5 mps 748 mmHg 92%
    21:00 +9°C° 0.1 mm 5 mps 748 mmHg 94%
    22:00 +10°C° 0.1 mm 4 mps 748 mmHg 95%
    23:00 +10°C° 0.4 mm 4 mps 748 mmHg 96%

    29 April, Monday

    Time Temperature Precipitation Wind Pressure Humidity
    00:00 +10°C° 0.4 mm 4 mps 748 mmHg 96%
    01:00 +10°C° 0.4 mm 3 mps 748 mmHg 97%
    02:00 +10°C° 0.6 mm 3 mps 748 mmHg 97%
    03:00 +11°C° 0.6 mm 4 mps 747 mmHg 97%
    04:00 +11°C° 0.6 mm 4 mps 747 mmHg 97%
    05:00 +12°C° 0.3 mm 5 mps 747 mmHg 95%
    06:00 +12°C° 0.3 mm 5 mps 747 mmHg 93%
    07:00 +11°C° 0.3 mm 6 mps 747 mmHg 91%
    08:00 +11°C° 0.1 mm 6 mps 747 mmHg 90%
    09:00 +11°C° 0.1 mm 7 mps 748 mmHg 89%
    10:00 +11°C° 0.1 mm 7 mps 748 mmHg 88%
    11:00 +11°C° 0.3 mm 6 mps 748 mmHg 88%
    12:00 +10°C° 0.3 mm 6 mps 748 mmHg 88%
    13:00 +10°C° 0.3 mm 6 mps 748 mmHg 88%
    14:00 +11°C° 0.1 mm 6 mps 748 mmHg 86%
    15:00 +11°C° 0.1 mm 6 mps 748 mmHg 83%
    16:00 +11°C° 0.1 mm 6 mps 748 mmHg 80%
    17:00 +11°C° 0 mm 6 mps 748 mmHg 82%
    18:00 +10°C° 0 mm 5 mps 748 mmHg 83%
    19:00 +11°C° 0 mm 4 mps 748 mmHg 85%
    20:00 +10°C° 0 mm 4 mps 749 mmHg 87%
    21:00 +8°C° 0 mm 4 mps 749 mmHg 89%
    22:00 +7°C° 0 mm 4 mps 750 mmHg 91%
    23:00 +7°C° 0 mm 4 mps 750 mmHg 90%

    30 April, Tuesday

    Time Temperature Precipitation Wind Pressure Humidity
    00:00 +7°C° 0 mm 4 mps 750 mmHg 89%
    01:00 +7°C° 0 mm 4 mps 750 mmHg 87%
    02:00 +6°C° 0 mm 5 mps 750 mmHg 85%
    03:00 +6°C° 0 mm 5 mps 750 mmHg 82%
    04:00 +6°C° 0 mm 5 mps 750 mmHg 79%
    05:00 +5°C° 0 mm 6 mps 751 mmHg 76%
    06:00 +7°C° 0 mm 6 mps 751 mmHg 73%
    07:00 +6°C° 0 mm 7 mps 751 mmHg 70%
    08:00 +9°C° 0 mm 7 mps 751 mmHg 65%
    09:00 +10°C° 0 mm 7 mps 751 mmHg 60%
    10:00 +11°C° 0 mm 7 mps 751 mmHg 55%
    11:00 +12°C° 0 mm 7 mps 751 mmHg 52%
    12:00 +13°C° 0 mm 6 mps 751 mmHg 50%
    13:00 +14°C° 0 mm 6 mps 751 mmHg 47%
    14:00 +14°C° 0 mm 6 mps 751 mmHg 47%
    15:00 +14°C° 0 mm 6 mps 751 mmHg 47%
    16:00 +14°C° 0 mm 5 mps 751 mmHg 47%
    17:00 +13°C° 0 mm 5 mps 751 mmHg 53%
    18:00 +11°C° 0 mm 4 mps 751 mmHg 58%
    19:00 +10°C° 0 mm 3 mps 751 mmHg 64%
    20:00 +9°C° 0 mm 3 mps 751 mmHg 65%
    21:00 +8°C° 0 mm 3 mps 751 mmHg 67%
    22:00 +7°C° 0 mm 3 mps 752 mmHg 68%
    23:00 +5°C° 0 mm 3 mps 751 mmHg 68%
    Show more